OBJECT B, 60013

Orbit data source: Space-Track

You're viewing an Uncataloged Satellite

Recently launched and/or uncataloged satellites may have evolving metadata. Metadata may include but not limited to: Owner, Maufacturer, Bus, Motor, and Mission.

OBJECT B, 60013 is a satellite owned by Tsinghua (CN) in SSO that was launched on Thu, 06 Jun 2024 UTC via a GUSHENXING 1 launch vehicle from the Jiuquan Satellite Launch Center, China (JSC). Unknown objects in Earth's orbit typically refer to objects detected orbiting the Earth but have not yet been identified or cataloged. These objects could be anything from previously untracked satellites, spent rocket stages, debris from satellite collisions, or even natural meteoroids temporarily captured by Earth's gravity.

Loading next visibility...
Identifier
60013, 2024-110B
Orbit
SSO
Last TLE update
8 hours ago
Origin
Manufacturer
Tsinghua
Mission
Operational spacecraft
Bus & Motor
NAXING, Unknown motor
Mass
20 kg wet, 20 kg dry
Launch date (UTC)
2024-06-06 (11 months ago)
Launch vehicle
GUSHENXING 1
Launch site
Jiuquan Satellite Launch Center, China (JSC)
Object type
Unknown
Shape & HBR
Unknown
Radar Cross Section
Medium (>0.1 m² and <1 m²)

Expand to show TLE details & history

TLE from 8 hours ago
0 OBJECT B
1 60013U 24110B   25128.94053926  .00009290  00000-0  49735-3 0  9995
2 60013  97.5819 218.9813 0012635 207.3031 152.7539 15.15185485 50837
Epoch: 2025-05-08T22:34Z
Definitive object data (Epoch: 2025-05-08T22:34:22.592Z)
Latitude
0.00007°
Longitude
13.38333°
Altitude
531.247 km
Speed
7.593 km/s
True Right ascension
14h 35m 55s
True Declination
0° 00' 00"
Sunlit
Object was in full shadow at TLE epoch
Visualization TLE readout
Latitude
38.3506°
Longitude
7.70787°
Altitude
534.337 km
Speed
7.595 km/s
Apparent Right ascension
10h 44m 05s
Apparent Declination
11° 33' 56"
Sunlit
Object is in full shadow
Visualization observer readout
Local Sidereal Time
14:48:56
Azimuth
260.159° W
Elevation
29.372°
Doppler factor
1
Orbital elements
Apogee altitude
526.108 km
Perigee altitude
508.683 km
Semi-major axis
6,895.532 km
Eccentricity
0.0012635
Inclination
97.5819°
RAAN
218.9813°
Arg. of periapsis
207.3031°
True anomaly
152.82009°
Mean anomaly
152.7539°
Eccentric anomaly
152.78701°
Mean motion
3.79046 °/min
BSTAR
0.00049735
Orbital period
94.98 mins
Loading maneuver chart data...
Loading SW <> Apogee altitude chart data...
Loading historical data...
Loading historical data...
Loading historical data...
Loading historical data...
Loading historical data...
Loading historical data...
Loading historical data...
Other satellites on launch #110 in the year 2024 (2024-06-06 UTC)

OBJECT B Visibility forecast

Observer location: undefined°, undefined°

Span
Click to sort rows by Start time (UTC) header in descending order
Start Az.
Max El. time (UTC)
Max El. Az.
Max El.
End time (UTC)
End Az.
4 mins2025-05-09 18:11:04.416Z55.718° ENE2025-05-09 18:13:04.416Z103.751° ESE23.271°2025-05-09 18:15:04.416Z144.688° SSE
4 mins2025-05-09 19:45:04.416Z325.033° NNW2025-05-09 19:47:04.416Z284.68° WNW18.314°2025-05-09 19:49:04.416Z249.295° W
5 mins2025-05-10 06:25:04.416Z206.043° SW2025-05-10 06:27:04.416Z276.415° WNW33.717°2025-05-10 06:30:04.416Z332.2° NNW
|